Wind_Speed
11 11 10 10 11 11 11 11 11 11 11 12 11 11 12 12 12 13 12 12 12 12 13 13 13 12 13 13 13 13 13 12 12 12 11 10 10 10 10 10 11 11 10 9
11 11 11 11 11 11 11 11 11 12 11 12 12 11 12 12 12 12 12 12 12 11 12 12 11 12 11 12 12 12 12 12 12 12 11 11 10 10 11 11 10 10 10 10
11 12 11 11 11 11 11 11 11 11 10 11 11 11 11 11 12 12 12 12 11 11 11 11 11 11 11 11 11 11 11 12 11 11 11 11 11 11 11 11 11 10 10 10
11 12 12 12 12 12 11 11 10 10 10 10 10 11 11 12 12 12 12 12 11 11 11 11 10 10 11 11 11 11 11 11 11 11 11 11 11 11 11 11 11 11 11 11
11 12 11 11 11 11 11 10 10 11 11 11 11 11 11 12 12 12 12 12 12 12 12 12 11 11 11 11 11 11 11 11 11 11 11 11 11 11 11 11 12 11 11 11
12 13 12 12 12 11 11 11 10 11 11 11 11 12 11 12 12 12 12 12 12 12 12 12 12 12 12 11 12 12 12 12 12 12 12 12 12 12 12 12 12 12 12 12
13 13 13 13 12 12 11 11 10 9 10 10 10 12 13 13 13 13 13 13 13 13 13 13 13 12 12 12 12 13 13 12 12 12 13 13 13 13 13 13 13 13 13 12
13 14 13 13 13 12 12 12 11 10 10 10 11 12 14 13 13 14 14 14 14 14 14 14 14 13 13 13 13 14 14 13 13 14 14 14 14 14 14 14 14 14 14 13
13 14 13 13 13 14 13 13 13 13 13 13 12 13 15 15 15 15 15 15 15 14 14 15 15 14 14 14 14 14 14 14 14 15 15 15 15 15 15 15 15 15 15 14
14 14 14 14 14 15 15 15 14 16 16 15 13 14 15 16 16 16 16 16 16 15 15 15 15 15 15 15 15 14 14 14 15 15 16 16 16 16 16 15 15 15 14 14
15 15 15 14 15 14 15 16 16 17 17 17 15 15 17 18 17 17 17 17 17 17 16 16 16 17 17 17 17 16 16 16 17 17 17 17 17 17 17 16 16 15 15 15
15 16 16 15 15 15 15 16 17 18 18 17 17 17 18 19 18 19 19 18 18 18 18 18 18 18 18 18 18 18 18 18 18 18 18 18 18 18 17 17 16 16 16 16
17 17 17 16 16 16 16 17 18 19 19 19 19 19 18 20 21 21 21 20 20 19 19 19 18 19 19 19 19 19 19 19 19 20 20 19 19 18 18 17 17 17 17 17
17 18 18 17 17 17 17 17 18 19 20 21 21 21 20 21 22 23 23 21 21 20 20 20 20 20 20 20 19 19 19 20 20 20 20 20 20 19 18 18 18 18 18 18
18 18 19 19 19 20 19 19 19 20 21 22 22 22 23 23 24 24 24 23 22 22 21 21 21 21 21 21 20 20 20 20 20 20 20 20 20 19 19 19 19 19 19 19
19 19 19 20 20 21 22 21 22 22 22 23 24 24 25 24 25 26 25 25 24 23 23 23 23 23 23 23 22 22 22 22 22 22 21 21 20 20 20 20 21 21 21 21
20 20 21 21 21 23 23 22 23 24 24 25 25 25 26 26 26 26 27 27 26 25 25 25 25 25 25 25 24 24 24 24 24 24 23 23 22 23 22 22 23 23 24 23
21 21 22 22 23 25 23 23 24 25 25 25 26 26 26 27 28 27 27 27 28 27 26 27 27 26 26 26 26 26 26 26 26 25 25 25 25 25 24 24 25 25 25 25
21 22 22 23 24 25 25 24 24 25 25 26 26 27 27 27 28 29 29 29 28 28 28 28 29 28 27 27 28 28 28 28 27 27 27 27 27 27 27 26 26 26 26 26
23 23 24 24 25 26 25 25 25 26 27 27 27 26 27 27 29 29 29 29 29 28 29 30 30 30 29 29 29 29 29 29 29 29 29 29 28 28 28 28 28 27 26 26
23 23 24 25 26 26 26 26 26 27 28 28 28 27 27 27 28 29 30 30 30 30 30 31 31 31 31 30 30 30 30 30 30 31 31 31 30 30 29 29 29 29 28 28
24 24 24 25 26 27 27 27 28 28 29 29 30 29 29 29 29 29 30 30 31 31 31 31 31 31 32 31 31 31 31 31 32 32 32 32 32 32 31 31 30 30 30 30
25 25 26 27 27 27 27 28 29 30 31 31 31 30 30 30 30 31 31 31 32 32 32 32 32 32 32 32 32 32 32 32 33 33 32 32 32 32 32 32 32 32 32 32
25 26 27 28 27 28 29 29 30 30 31 32 32 32 32 32 32 32 32 33 32 32 32 32 32 32 32 33 34 33 33 33 34 34 34 33 33 32 32 33 33 33 33 33
27 27 28 29 29 30 30 30 31 31 32 33 33 33 33 33 33 34 34 33 32 32 33 33 34 33 33 34 35 34 35 35 35 35 35 35 34 34 34 34 34 33 34 34
28 29 29 30 30 31 31 32 33 33 33 33 33 33 33 34 34 34 33 34 34 33 33 34 35 35 35 35 35 35 36 36 37 37 37 36 36 36 35 35 35 34 34 35
Wind_Direction
266 265 266 267 267 268 266 265 267 269 271 271 270 274 277 280 280 281 283 283 281 281 280 280 282 284 282 282 283 282 280 280 280 280 277 278 280 281 282 282 280 281 281 281
265 264 265 267 267 265 258 260 265 265 267 272 274 274 277 281 282 285 286 284 283 281 280 280 282 286 287 287 287 284 280 279 281 281 276 277 278 279 281 281 283 280 280 280
266 266 266 267 269 265 260 258 260 265 265 270 278 277 278 282 282 285 287 286 283 283 281 281 282 285 287 289 291 288 285 284 282 281 278 279 279 280 279 281 282 281 280 280
267 269 266 265 266 266 261 258 260 265 267 271 280 284 283 286 284 284 286 287 284 282 282 280 281 283 285 287 289 288 284 283 282 281 281 281 282 281 278 279 281 278 278 279
265 267 267 265 264 263 261 260 262 266 270 271 276 283 284 288 288 283 281 283 283 283 283 281 281 282 284 284 285 285 285 283 283 285 286 286 284 284 283 281 283 279 278 279
264 266 263 261 260 261 261 260 263 266 270 273 276 282 286 284 287 287 283 281 281 283 285 285 284 283 283 284 281 281 282 282 283 284 286 289 288 288 287 286 286 282 280 280
264 262 260 258 259 261 261 261 265 271 275 280 279 277 275 278 289 292 286 283 282 283 286 286 286 284 282 283 283 283 282 280 281 282 282 284 286 286 287 287 287 286 283 282
263 264 263 260 261 264 260 259 260 261 265 272 275 274 277 282 287 287 287 285 282 281 283 285 285 282 282 283 284 283 281 281 281 280 280 282 284 286 288 288 287 286 284 283
264 266 270 268 263 261 257 256 256 253 258 262 269 275 280 281 284 285 285 285 283 281 282 284 284 283 283 285 284 284 283 282 281 282 282 283 283 285 288 288 287 284 282 282
263 264 266 267 264 262 259 258 257 255 260 261 265 271 273 280 282 285 285 284 284 283 283 284 282 282 284 284 284 284 284 284 283 284 285 284 284 285 287 286 285 284 282 281
263 265 266 266 267 266 263 260 260 260 261 262 259 264 273 278 282 285 286 285 283 282 284 283 282 282 283 283 283 283 283 283 283 283 284 284 284 284 283 285 283 282 281 280
262 264 266 267 268 268 265 261 257 257 258 260 259 261 272 276 279 282 284 282 280 281 283 282 280 281 282 281 281 280 281 282 282 283 285 285 284 283 281 281 282 279 279 278
263 262 263 265 267 268 267 262 258 258 259 261 264 267 271 275 276 280 283 283 281 281 281 281 280 281 281 281 280 279 279 278 280 282 283 284 283 283 281 278 278 278 277 276
266 263 261 262 264 267 267 265 263 262 261 262 264 267 269 272 274 278 280 281 280 279 279 279 278 279 279 280 280 278 278 278 279 280 281 282 281 280 279 278 278 278 278 277
268 266 263 261 261 262 263 265 265 265 264 265 266 266 268 271 273 275 278 278 277 277 278 278 278 278 278 279 279 278 277 278 278 279 279 279 279 278 278 277 276 277 278 278
271 270 268 265 263 263 265 265 266 266 267 267 266 266 268 270 271 273 276 277 276 276 277 278 278 279 278 277 277 277 276 277 277 277 277 276 277 277 277 277 277 276 276 276
273 272 270 270 267 266 267 268 270 269 268 269 270 270 271 271 270 273 274 274 275 275 275 277 278 278 278 277 276 275 276 277 276 275 275 275 275 276 277 278 278 277 276 276
275 274 273 272 271 269 270 269 270 271 272 272 271 271 270 271 271 272 272 273 274 272 271 273 275 275 276 276 276 275 275 275 276 275 275 275 275 275 275 276 278 278 277 275
272 273 273 271 270 272 270 269 271 273 274 275 276 275 273 273 273 273 273 274 274 274 270 271 272 273 274 275 276 277 276 276 276 276 276 276 275 274 274 276 277 277 276 276
270 270 271 272 272 273 274 274 274 275 276 277 278 278 277 275 274 275 275 276 275 274 273 270 271 272 273 274 275 276 276 276 276 275 275 274 274 274 274 274 275 274 275 275
271 270 271 273 273 274 274 276 275 274 276 278 277 277 277 276 276 277 276 276 276 274 274 272 271 272 272 273 273 274 274 275 275 275 275 274 273 273 273 273 272 271 272 273
274 273 273 274 274 276 277 277 277 277 277 277 278 280 279 277 277 278 278 277 276 275 274 273 272 271 271 272 272 273 273 274 275 274 275 273 273 273 273 273 272 272 271 271
274 275 275 274 276 277 278 278 277 277 278 278 279 280 279 278 278 277 277 278 277 276 275 273 272 271 271 271 272 273 273 274 274 274 274 273 273 273 272 273 273 273 272 272
274 274 274 274 276 277 277 278 278 279 279 280 280 280 280 279 278 277 278 278 278 276 275 274 274 273 272 271 272 272 273 274 274 274 274 273 273 273 273 273 273 272 272 273
276 276 276 276 278 278 278 278 278 278 278 279 280 281 280 280 279 278 277 277 277 277 276 275 274 273 273 272 272 272 273 274 274 274 274 273 273 272 272 272 272 272 272 272
276 276 276 277 277 277 278 278 279 280 281 282 281 280 280 280 280 280 279 278 276 275 276 276 275 273 273 272 272 272 272 273 273 273 273 272 271 270 271 270 270 270 271 272
Height
5850 5851 5851 5851 5851 5851 5851 5852 5852 5853 5853 5853 5853 5854 5854 5854 5854 5854 5854 5854 5854 5853 5853 5853 5853 5853 5852 5852 5852 5852 5851 5851 5851 5851 5851 5850 5850 5850 5850 5850 5850 5850 5850 5850
5848 5848 5848 5848 5848 5848 5849 5849 5850 5851 5851 5851 5851 5852 5852 5852 5852 5852 5851 5851 5851 5851 5851 5851 5850 5850 5850 5849 5849 5849 5848 5848 5848 5848 5848 5848 5848 5847 5847 5847 5847 5847 5847 5847
5845 5846 5845 5846 5846 5847 5847 5847 5848 5848 5849 5849 5850 5850 5850 5850 5849 5849 5849 5849 5849 5849 5849 5848 5848 5848 5847 5847 5846 5846 5846 5845 5845 5845 5845 5845 5845 5845 5845 5844 5845 5844 5845 5845
5843 5843 5843 5843 5844 5844 5844 5845 5846 5846 5847 5847 5848 5847 5848 5847 5847 5847 5847 5847 5847 5846 5846 5846 5846 5845 5845 5844 5844 5843 5843 5843 5843 5842 5842 5842 5842 5842 5842 5842 5841 5842 5842 5842
5841 5841 5841 5841 5842 5842 5843 5843 5844 5844 5845 5845 5845 5845 5846 5845 5845 5845 5845 5845 5844 5844 5844 5843 5843 5843 5842 5842 5841 5841 5841 5840 5840 5840 5839 5839 5839 5839 5838 5838 5838 5838 5838 5839
5838 5838 5839 5839 5839 5840 5841 5841 5842 5842 5842 5843 5844 5844 5844 5843 5843 5843 5843 5843 5842 5842 5841 5841 5841 5840 5840 5839 5839 5838 5838 5838 5838 5837 5837 5836 5836 5836 5835 5835 5835 5835 5835 5835
5836 5836 5836 5837 5837 5838 5838 5840 5840 5840 5840 5841 5841 5841 5842 5841 5841 5840 5840 5840 5840 5839 5839 5838 5838 5838 5837 5837 5836 5836 5835 5835 5835 5834 5834 5834 5833 5833 5833 5832 5832 5832 5832 5832
5832 5833 5833 5834 5835 5835 5836 5837 5838 5839 5839 5839 5839 5839 5839 5839 5838 5838 5838 5837 5837 5837 5836 5836 5835 5835 5834 5834 5833 5833 5832 5832 5832 5831 5831 5831 5830 5830 5829 5829 5829 5829 5829 5829
5830 5830 5831 5831 5831 5833 5833 5833 5835 5836 5835 5836 5836 5836 5836 5835 5836 5836 5835 5835 5834 5834 5833 5833 5832 5832 5831 5831 5830 5830 5829 5829 5828 5828 5828 5827 5827 5827 5826 5826 5825 5825 5825 5825
5826 5827 5828 5828 5828 5829 5830 5831 5831 5832 5832 5832 5834 5833 5833 5832 5832 5832 5832 5832 5831 5830 5830 5829 5829 5828 5828 5827 5827 5826 5826 5825 5825 5824 5824 5824 5823 5823 5822 5822 5821 5821 5821 5821
5823 5824 5825 5825 5825 5826 5827 5828 5827 5828 5828 5829 5830 5832 5829 5829 5828 5828 5828 5828 5827 5827 5826 5826 5825 5825 5824 5823 5823 5822 5822 5821 5821 5821 5820 5819 5819 5818 5818 5818 5818 5817 5817 5818
5820 5820 5821 5822 5822 5822 5823 5823 5824 5825 5825 5825 5825 5828 5826 5825 5824 5824 5824 5823 5823 5823 5822 5822 5821 5820 5820 5819 5819 5818 5818 5817 5817 5816 5816 5815 5814 5814 5814 5813 5813 5813 5814 5814
5816 5817 5817 5818 5820 5819 5819 5819 5819 5820 5820 5820 5821 5824 5822 5821 5820 5820 5819 5819 5819 5818 5818 5817 5817 5816 5815 5814 5814 5813 5813 5813 5812 5812 5811 5811 5810 5810 5809 5809 5809 5809 5810 5810
5812 5813 5814 5814 5814 5813 5814 5814 5815 5815 5815 5816 5817 5818 5817 5816 5815 5814 5814 5814 5813 5813 5813 5812 5812 5811 5810 5809 5809 5808 5808 5808 5807 5807 5807 5806 5806 5805 5805 5805 5805 5805 5805 5805
5807 5808 5808 5808 5809 5808 5809 5809 5810 5810 5811 5811 5812 5812 5811 5811 5810 5809 5808 5808 5808 5808 5808 5807 5806 5806 5805 5805 5804 5804 5803 5803 5802 5802 5802 5801 5801 5801 5801 5801 5801 5801 5801 5801
5802 5803 5803 5803 5804 5803 5804 5804 5804 5805 5805 5805 5805 5805 5805 5804 5804 5803 5803 5802 5802 5802 5802 5801 5800 5800 5799 5799 5799 5798 5798 5798 5797 5797 5797 5796 5796 5796 5796 5796 5796 5796 5796 5796
5797 5797 5797 5797 5798 5797 5798 5799 5799 5799 5799 5799 5798 5800 5799 5798 5797 5797 5796 5795 5795 5796 5795 5795 5794 5794 5793 5793 5793 5792 5792 5791 5791 5791 5791 5790 5790 5790 5790 5790 5790 5790 5790 5790
5792 5792 5791 5791 5792 5791 5794 5793 5793 5792 5792 5791 5791 5791 5791 5791 5790 5789 5789 5789 5788 5788 5789 5788 5787 5787 5786 5785 5785 5785 5785 5785 5784 5784 5784 5784 5783 5783 5783 5783 5783 5783 5783 5783
5787 5786 5785 5785 5785 5785 5786 5786 5786 5786 5785 5784 5784 5784 5783 5783 5782 5782 5781 5781 5781 5781 5781 5780 5779 5779 5779 5778 5777 5777 5777 5777 5777 5777 5776 5776 5776 5776 5776 5776 5776 5776 5776 5776
5780 5780 5780 5779 5779 5779 5780 5780 5779 5780 5778 5778 5777 5776 5776 5775 5775 5774 5773 5773 5773 5773 5772 5772 5771 5771 5771 5770 5770 5769 5769 5769 5768 5768 5768 5768 5768 5767 5767 5768 5768 5768 5768 5768
5774 5774 5773 5773 5772 5771 5773 5772 5773 5773 5772 5770 5769 5769 5768 5767 5766 5766 5765 5764 5764 5764 5764 5763 5763 5762 5762 5762 5761 5761 5761 5760 5760 5759 5759 5759 5759 5759 5759 5759 5759 5759 5759 5759
5767 5767 5767 5766 5765 5767 5765 5765 5765 5764 5763 5761 5761 5760 5760 5759 5758 5757 5756 5756 5755 5755 5754 5754 5754 5753 5753 5752 5752 5752 5752 5751 5750 5750 5750 5750 5750 5749 5749 5750 5750 5750 5750 5750
5760 5761 5759 5759 5760 5758 5757 5757 5756 5755 5754 5753 5752 5752 5751 5750 5749 5748 5748 5747 5746 5746 5745 5745 5744 5744 5744 5743 5742 5742 5742 5741 5741 5741 5740 5740 5740 5739 5739 5740 5740 5740 5740 5740
5753 5752 5751 5751 5751 5750 5749 5748 5748 5746 5746 5745 5743 5743 5742 5741 5740 5739 5738 5738 5737 5736 5735 5735 5734 5734 5734 5734 5733 5732 5732 5731 5731 5730 5730 5730 5730 5730 5730 5730 5730 5730 5730 5730
5746 5745 5744 5743 5743 5742 5741 5739 5738 5738 5737 5735 5735 5734 5732 5731 5730 5729 5728 5728 5727 5726 5725 5725 5724 5724 5724 5723 5723 5722 5721 5721 5720 5720 5719 5719 5719 5719 5719 5719 5719 5719 5720 5720
5738 5737 5736 5735 5734 5733 5732 5730 5729 5728 5727 5727 5725 5724 5723 5721 5720 5719 5718 5717 5716 5716 5715 5715 5714 5713 5713 5713 5712 5711 5710 5709 5709 5708 5708 5708 5708 5708 5708 5708 5709 5709 5709 5709